EN

Hourly Weather Abakany

Today, 14 June, Monday

Time Temperature Precipitation Wind Pressure Humidity
00:00 +13°C° 0 mm 3 mps 745 mmHg 95%
01:00 +12°C° 0 mm 3 mps 746 mmHg 96%
02:00 +12°C° 0 mm 2 mps 746 mmHg 98%
03:00 +12°C° 0 mm 2 mps 746 mmHg 96%
04:00 +12°C° 0 mm 2 mps 747 mmHg 95%
05:00 +11°C° 0 mm 3 mps 747 mmHg 94%
06:00 +13°C° 0 mm 3 mps 748 mmHg 85%
07:00 +16°C° 0 mm 3 mps 748 mmHg 77%
08:00 +18°C° 0 mm 3 mps 749 mmHg 68%
09:00 +19°C° 0 mm 3 mps 749 mmHg 62%
10:00 +20°C° 0 mm 3 mps 749 mmHg 56%
11:00 +21°C° 0 mm 3 mps 749 mmHg 50%
12:00 +23°C° 0 mm 2 mps 749 mmHg 47%
13:00 +23°C° 0 mm 2 mps 749 mmHg 45%
14:00 +24°C° 0 mm 2 mps 749 mmHg 43%
15:00 +24°C° 0 mm 2 mps 749 mmHg 44%
16:00 +24°C° 0 mm 2 mps 749 mmHg 44%
17:00 +23°C° 0 mm 2 mps 749 mmHg 45%
18:00 +20°C° 0 mm 2 mps 749 mmHg 54%
19:00 +20°C° 0 mm 1 mps 749 mmHg 63%
20:00 +18°C° 0 mm 1 mps 748 mmHg 72%
21:00 +16°C° 0 mm 1 mps 748 mmHg 73%
22:00 +14°C° 0 mm 1 mps 748 mmHg 75%
23:00 +12°C° 0 mm 0 mps 748 mmHg 76%

Tomorrow, 15 June, Tuesday

Time Temperature Precipitation Wind Pressure Humidity
00:00 +13°C° 0 mm 1 mps 748 mmHg 78%
01:00 +12°C° 0 mm 1 mps 748 mmHg 80%
02:00 +12°C° 0 mm 1 mps 748 mmHg 81%
03:00 +12°C° 0 mm 1 mps 748 mmHg 81%
04:00 +12°C° 0 mm 1 mps 748 mmHg 80%
05:00 +12°C° 0 mm 2 mps 747 mmHg 80%
06:00 +14°C° 0 mm 2 mps 747 mmHg 71%
07:00 +17°C° 0 mm 3 mps 747 mmHg 62%
08:00 +19°C° 0 mm 3 mps 747 mmHg 53%
09:00 +20°C° 0 mm 4 mps 747 mmHg 51%
10:00 +21°C° 0 mm 4 mps 747 mmHg 49%
11:00 +22°C° 0 mm 4 mps 746 mmHg 47%
12:00 +23°C° 0 mm 4 mps 746 mmHg 48%
13:00 +23°C° 0 mm 4 mps 746 mmHg 48%
14:00 +25°C° 0 mm 4 mps 745 mmHg 48%
15:00 +22°C° 0.3 mm 4 mps 745 mmHg 62%
16:00 +20°C° 0.3 mm 4 mps 745 mmHg 75%
17:00 +19°C° 0.3 mm 3 mps 745 mmHg 88%
18:00 +18°C° 0.2 mm 3 mps 745 mmHg 90%
19:00 +17°C° 0.2 mm 2 mps 745 mmHg 93%
20:00 +17°C° 0.2 mm 2 mps 745 mmHg 95%
21:00 +15°C° 0 mm 2 mps 746 mmHg 94%
22:00 +14°C° 0 mm 2 mps 746 mmHg 94%
23:00 +13°C° 0 mm 2 mps 746 mmHg 94%

Day after tomorrow, 16 June, Wednesday

Time Temperature Precipitation Wind Pressure Humidity
00:00 +12°C° 0 mm 2 mps 747 mmHg 94%
01:00 +9°C° 0 mm 2 mps 747 mmHg 95%
02:00 +8°C° 0 mm 2 mps 748 mmHg 95%
03:00 +8°C° 0 mm 2 mps 748 mmHg 95%
04:00 +10°C° 0 mm 1 mps 748 mmHg 95%
05:00 +10°C° 0 mm 1 mps 749 mmHg 95%
06:00 +12°C° 0 mm 1 mps 749 mmHg 86%
07:00 +14°C° 0 mm 2 mps 749 mmHg 76%
08:00 +16°C° 0 mm 2 mps 750 mmHg 66%
09:00 +17°C° 0 mm 2 mps 750 mmHg 57%
10:00 +19°C° 0 mm 2 mps 750 mmHg 49%
11:00 +20°C° 0 mm 2 mps 750 mmHg 40%
12:00 +21°C° 0 mm 2 mps 751 mmHg 38%
13:00 +23°C° 0 mm 2 mps 751 mmHg 36%
14:00 +23°C° 0 mm 2 mps 751 mmHg 34%
15:00 +23°C° 0 mm 2 mps 751 mmHg 36%
16:00 +23°C° 0 mm 2 mps 751 mmHg 37%
17:00 +23°C° 0 mm 1 mps 751 mmHg 38%
18:00 +21°C° 0 mm 1 mps 751 mmHg 48%
19:00 +19°C° 0 mm 1 mps 751 mmHg 58%
20:00 +16°C° 0 mm 1 mps 751 mmHg 67%
21:00 +15°C° 0 mm 1 mps 752 mmHg 69%
22:00 +14°C° 0 mm 1 mps 752 mmHg 70%
23:00 +13°C° 0 mm 1 mps 752 mmHg 71%

17 June, Thursday

Time Temperature Precipitation Wind Pressure Humidity
00:00 +12°C° 0 mm 1 mps 753 mmHg 73%
01:00 +12°C° 0 mm 1 mps 753 mmHg 74%
02:00 +12°C° 0 mm 1 mps 753 mmHg 75%
03:00 +12°C° 0 mm 1 mps 753 mmHg 75%
04:00 +12°C° 0 mm 1 mps 754 mmHg 75%
05:00 +13°C° 0 mm 1 mps 754 mmHg 75%
06:00 +15°C° 0 mm 1 mps 754 mmHg 67%
07:00 +19°C° 0 mm 1 mps 755 mmHg 59%
08:00 +21°C° 0 mm 1 mps 755 mmHg 51%
09:00 +22°C° 0 mm 1 mps 755 mmHg 46%
10:00 +24°C° 0 mm 1 mps 755 mmHg 42%
11:00 +25°C° 0 mm 1 mps 755 mmHg 37%
12:00 +26°C° 0 mm 1 mps 755 mmHg 36%
13:00 +26°C° 0 mm 1 mps 755 mmHg 34%
14:00 +27°C° 0 mm 1 mps 755 mmHg 33%
15:00 +27°C° 0 mm 1 mps 755 mmHg 34%
16:00 +27°C° 0 mm 1 mps 755 mmHg 35%
17:00 +27°C° 0 mm 1 mps 755 mmHg 36%
18:00 +23°C° 0 mm 0 mps 755 mmHg 46%
19:00 +21°C° 0 mm 0 mps 755 mmHg 56%
20:00 +19°C° 0 mm 0 mps 755 mmHg 65%
21:00 +17°C° 0 mm 0 mps 755 mmHg 69%
22:00 +18°C° 0 mm 1 mps 755 mmHg 72%
23:00 +16°C° 0 mm 1 mps 755 mmHg 75%

18 June, Friday

Time Temperature Precipitation Wind Pressure Humidity
00:00 +15°C° 0 mm 1 mps 755 mmHg 77%
01:00 +15°C° 0 mm 1 mps 756 mmHg 80%
02:00 +14°C° 0 mm 1 mps 756 mmHg 82%
03:00 +15°C° 0 mm 1 mps 756 mmHg 81%
04:00 +15°C° 0 mm 1 mps 756 mmHg 81%
05:00 +16°C° 0 mm 1 mps 756 mmHg 81%
06:00 +18°C° 0 mm 2 mps 756 mmHg 73%
07:00 +20°C° 0 mm 2 mps 756 mmHg 66%
08:00 +23°C° 0 mm 2 mps 756 mmHg 59%
09:00 +25°C° 0 mm 3 mps 756 mmHg 53%
10:00 +26°C° 0 mm 3 mps 756 mmHg 47%
11:00 +27°C° 0 mm 3 mps 755 mmHg 41%
12:00 +28°C° 0 mm 3 mps 755 mmHg 40%
13:00 +29°C° 0 mm 3 mps 755 mmHg 38%
14:00 +29°C° 0 mm 3 mps 755 mmHg 36%
15:00 +29°C° 0 mm 3 mps 755 mmHg 39%
16:00 +29°C° 0 mm 3 mps 754 mmHg 42%
17:00 +29°C° 0 mm 3 mps 754 mmHg 45%
18:00 +27°C° 0 mm 3 mps 754 mmHg 55%
19:00 +25°C° 0 mm 2 mps 754 mmHg 65%
20:00 +23°C° 0 mm 2 mps 754 mmHg 75%
21:00 +21°C° 0 mm 2 mps 754 mmHg 78%
22:00 +19°C° 0 mm 2 mps 755 mmHg 82%
23:00 +18°C° 0 mm 2 mps 755 mmHg 86%

19 June, Saturday

Time Temperature Precipitation Wind Pressure Humidity
00:00 +18°C° 0 mm 2 mps 755 mmHg 88%
01:00 +17°C° 0 mm 2 mps 755 mmHg 90%
02:00 +17°C° 0 mm 2 mps 755 mmHg 92%
03:00 +17°C° 0 mm 2 mps 755 mmHg 90%
04:00 +17°C° 0 mm 2 mps 755 mmHg 87%
05:00 +18°C° 0 mm 2 mps 756 mmHg 85%
06:00 +20°C° 0 mm 2 mps 756 mmHg 77%
07:00 +23°C° 0 mm 2 mps 756 mmHg 69%
08:00 +25°C° 0 mm 2 mps 756 mmHg 60%
09:00 +26°C° 0 mm 3 mps 756 mmHg 55%
10:00 +27°C° 0 mm 3 mps 756 mmHg 49%
11:00 +29°C° 0 mm 3 mps 755 mmHg 44%
12:00 +29°C° 0 mm 3 mps 755 mmHg 41%
13:00 +30°C° 0 mm 3 mps 755 mmHg 38%
14:00 +31°C° 0 mm 3 mps 755 mmHg 36%
15:00 +30°C° 0 mm 3 mps 755 mmHg 38%
16:00 +30°C° 0 mm 3 mps 755 mmHg 40%
17:00 +30°C° 0 mm 3 mps 754 mmHg 42%
18:00 +28°C° 0 mm 2 mps 754 mmHg 52%
19:00 +26°C° 0 mm 2 mps 754 mmHg 63%
20:00 +23°C° 0 mm 2 mps 754 mmHg 73%
21:00 +21°C° 0 mm 2 mps 754 mmHg 78%
22:00 +20°C° 0 mm 2 mps 755 mmHg 82%
23:00 +19°C° 0 mm 2 mps 755 mmHg 86%
Show more